STARLINK-11487, 62278

Orbit data source: Space-Track

STARLINK-11487, 62278 is a payload satellite owned by SpaceX/Seattle (US) in LEO that was launched on Sun, 08 Dec 2024 UTC via an FALCON 9 launch vehicle from the Air Force Eastern Test Range (AFETR). Payload-class satellites include a variety of spacecraft equipped with specific instruments for various scientific and technological missions. These include communications satellites like Starlink; space stations such as the ISS; scientific satellites like the Hubble; Earth observation satellites from companies like Planet Labs, Umbra, and HawkEye 360; GPS; miniature CubeSats for education and research; and military/defense satellites.

Loading next visibility...
Identifier
62278, 2024-237M
Orbit
LEO
Country
Flag of USUS
Related business
Manufacturer
SpaceX/Seattle
Mission
Operational Commercial Communications
Bus & Motor
STARLINK V2MD, Unknown motor
Mass
960 kg wet, ~910 kg dry
Launch date (UTC)
2024-12-08 (10 months ago)
Launch vehicle
FALCON 9
Launch site
Air Force Eastern Test Range (AFETR)
Object type
Payload
Rocket body
Debris
Shape & HBR
Box + 2 Pan, 18.1 m
Radar Cross Section
36.964 m², Large (>1 m²)

Expand to show TLE details & history
Last TLE update: 1 day ago

TLE from 1 day ago
0 STARLINK-11487
1 62278U 24237M   25286.00002315  .00051052  00000-0  39951-3 0  9990
2 62278  42.9999 227.3276 0001317 268.3123 285.0132 15.70804016  6004
Epoch: 2025-10-13T00:00Z
TLE epoch observation values (Epoch: 2025-10-13T00:00:02.000Z)
Latitude
-9.14507°
Longitude
35.39466°
Altitude
357.775 km
Speed
7.696 km/s
True Right ascension
03h 48m 50s
True Declination
-9° 05' 17"
Sunlit
Object was in full shadow at epoch
Visualization orbit readout
Latitude
Unknown
Longitude
Unknown
Altitude
Unknown
Speed
Unknown
Apparent Right ascension
Unknown
Apparent Declination
Unknown
Sunlit
N/A
Visualization observer readout
Local Sidereal Time
18:43:47
Azimuth
Unknown
Elevation
Unknown
Doppler factor
Unknown
Orbital elements
Apogee altitude
359.467 km
Perigee altitude
357.692 km
Semi-major axis
6,736.716 km
Eccentricity
0.00013
Inclination
42.9999°
RAAN
227.3276°
Arg. of periapsis
268.3123°
True anomaly
284.99862°
Mean anomaly
285.0132°
Eccentric anomaly
285.00591°
Mean motion
3.92528 °/min
Orbital period
91.71 mins
BSTAR
0.00039951
Loading maneuver chart data...
Computing Atmospheric mass density...
Loading historical data...
Loading historical data...
Loading historical data...
Loading historical data...
Loading historical data...
Loading historical data...
Loading historical data...

Documentation

Showing up to 5 results
|